CW3175 Weather Reports


time (UTC)temp
F
wind
direction
speed
knots
gust
knots
rain 1hr
in
rain 24hr
in
rain mn
in
humidity
%
barometer
mb
20160831055426 76 350 0.0 0.0 0.00 0.34 0.00 75 1014.3
20160831053915 76 350 0.0 0.0 0.00 0.34 0.00 74 1014.4
20160831052407 76 350 0.0 0.9 0.00 0.34 0.00 74 1014.6
20160831050901 76 350 0.0 3.5 0.00 0.34 0.00 75 1014.5
20160831045357 76 350 0.9 5.2 0.00 0.34 0.00 75 1014.8
20160831043847 76 342 0.0 1.7 0.00 0.34 0.00 76 1014.9
20160831042343 76 343 0.0 2.6 0.00 0.34 0.00 79 1014.9
20160831040837 75 342 0.0 0.0 0.00 0.34 0.00 83 1014.9
20160831035335 76 341 0.0 0.0 0.00 0.34 0.00 82 1014.9
20160831033825 76 340 0.0 0.0 0.00 0.34 0.00 80 1014.9
20160831032311 76 340 0.0 0.0 0.00 0.34 0.00 78 1014.7
20160831030725 76 340 0.0 0.0 0.00 0.34 0.00 79 1014.6
20160831025216 76 340 0.0 0.0 0.00 0.34 0.00 79 1014.8
20160831023717 76 340 0.0 0.0 0.00 0.34 0.00 79 1014.8
20160831022213 77 340 0.0 0.0 0.00 0.34 0.00 80 1014.8
20160831020714 78 341 0.0 0.0 0.00 0.34 0.00 77 1014.7
20160831015157 78 340 0.0 0.0 0.00 0.34 0.00 69 1014.5
20160831013645 78 336 0.0 1.7 0.00 0.34 0.00 66 1014.4
20160831012140 78 336 0.0 3.5 0.00 0.34 0.00 66 1014.2
20160831010641 79 332 0.0 3.5 0.00 0.34 0.00 66 1014.0
20160831005138 79 332 0.0 3.5 0.00 0.34 0.00 65 1013.9
20160831003628 79 333 0.0 2.6 0.00 0.34 0.00 65 1013.7
20160831002123 79 333 0.0 2.6 0.00 0.34 0.00 65 1013.7
20160831000622 79 336 0.0 2.6 0.00 0.34 0.00 64 1013.7
20160830235117 79 336 0.9 3.5 0.00 0.34 0.34 63 1013.8
20160830233614 80 328 1.7 6.1 0.00 0.34 0.34 63 1013.9
20160830232106 80 9 0.9 9.6 0.00 0.34 0.34 64 1014.1
20160830230601 79 0 3.5 7.8 0.00 0.34 0.34 67 1014.5
20160830225103 79 0 4.3 13.9 0.00 0.34 0.34 68 1014.6
20160830223603 80 342 7.0 19.1 0.00 0.34 0.34 68 1014.7
20160830222103 85 286 0.0 3.5 0.00 0.34 0.34 54 1014.5
20160830220537 85 262 0.9 9.6 0.00 0.34 0.34 52 1014.3
20160830215038 88 306 0.9 8.7 0.00 0.34 0.34 50 1014.1
20160830213533 88 293 0.9 6.1 0.00 0.34 0.34 51 1014.3
20160830212028 87 229 0.0 2.6 0.00 0.34 0.34 52 1014.7
20160830210527 86 227 0.9 6.1 0.00 0.34 0.34 53 1014.7
20160830205022 88 175 0.0 5.2 0.00 0.34 0.34 50 1014.8
20160830203522 87 265 0.9 6.1 0.00 0.34 0.34 50 1014.9
20160830202020 87 219 0.9 9.6 0.00 0.34 0.34 51 1014.9
20160830200518 87 266 0.9 7.8 0.00 0.34 0.34 51 1014.9
20160830194955 86 184 2.6 10.4 0.00 0.34 0.34 52 1015.1
20160830193454 84 151 0.9 4.3 0.00 0.34 0.34 68 1015.2
20160830191954 82 87 0.0 0.9 0.00 0.34 0.34 74 1015.4
20160830190454 80 87 0.0 1.7 0.00 0.34 0.34 78 1015.8
20160830184949 80 66 0.0 3.5 0.00 0.34 0.34 78 1016.0
20160830183450 81 67 0.0 3.5 0.00 0.34 0.34 77 1016.2
20160830181950 80 75 0.0 1.7 0.00 0.34 0.34 78 1016.3
20160830180430 81 75 0.9 3.5 0.00 0.34 0.34 77 1016.3
20160830174928 81 125 0.0 3.5 0.00 0.34 0.34 78 1016.6
20160830173428 80 121 0.9 4.3 0.00 0.34 0.34 81 1016.7
20160830171928 78 97 0.9 3.5 0.00 0.34 0.34 84 1016.9
20160830170430 77 101 0.9 5.2 0.00 0.34 0.34 88 1016.9
20160830164929 77 117 1.7 6.1 0.00 0.34 0.34 89 1017.0
20160830163433 77 110 0.9 6.1 0.00 0.34 0.34 90 1017.4
20160830161919 78 102 0.0 3.5 0.00 0.34 0.34 91 1017.4
20160830160414 78 146 0.0 3.5 0.00 0.34 0.34 91 1017.4
20160830154911 78 86 0.0 2.6 0.00 0.34 0.34 93 1017.3
20160830153357 77 65 0.0 0.9 0.00 0.34 0.34 96 1017.3
20160830151839 77 64 0.0 4.3 0.00 0.34 0.34 98 1017.1
20160830150334 76 90 0.0 3.5 0.00 0.34 0.34 99 1017.4
20160830144835 75 103 0.0 2.6 0.01 0.34 0.34 99 1017.5
20160830143331 75 98 0.0 2.6 0.01 0.34 0.34 99 1017.6
20160830141827 75 98 0.0 0.0 0.01 0.34 0.34 99 1017.5
20160830140313 75 98 0.0 2.6 0.02 0.34 0.34 98 1017.2
20160830134809 75 100 0.9 6.1 0.03 0.33 0.33 98 1017.4
20160830133301 75 98 0.0 5.2 0.05 0.33 0.33 98 1017.6
20160830131758 75 306 0.0 0.0 0.20 0.33 0.33 98 1017.9
20160830130251 75 303 0.0 3.5 0.32 0.32 0.32 98 1018.0
20160830124744 75 296 0.0 0.0 0.30 0.30 0.30 98 1018.0
20160830123239 75 296 0.0 5.2 0.28 0.28 0.28 98 1018.1
20160830121740 76 47 0.0 0.9 0.13 0.13 0.13 97 1018.4
20160830120239 76 51 0.0 0.0 0.00 0.00 0.00 97 1018.3
20160830114740 76 51 0.0 0.0 0.00 0.00 0.00 97 1018.0
20160830113240 76 51 0.0 0.0 0.00 0.00 0.00 97 1017.8
20160830111740 76 51 0.0 0.0 0.00 0.00 0.00 97 1017.5
20160830110240 76 51 0.0 0.0 0.00 0.00 0.00 97 1017.8
20160830104740 76 51 0.0 1.7 0.00 0.00 0.00 97 1017.9
20160830103238 76 51 0.0 0.0 0.00 0.00 0.00 96 1017.7
20160830101728 75 51 0.0 0.0 0.00 0.00 0.00 96 1017.7
20160830100220 75 51 0.0 0.0 0.00 0.00 0.00 96 1017.6
20160830094716 75 51 0.0 0.0 0.00 0.00 0.00 96 1017.6
20160830093150 75 51 0.0 0.9 0.00 0.00 0.00 95 1017.4
20160830090144 76 51 0.0 0.0 0.00 0.00 0.00 95 1017.5
20160830084642 75 51 0.0 0.0 0.00 0.00 0.00 95 1017.7
20160830083134 75 51 0.0 0.0 0.00 0.00 0.00 95 1017.8
20160830081626 76 51 0.0 0.0 0.00 0.00 0.00 94 1017.9
20160830080126 76 51 0.0 0.0 0.00 0.00 0.00 94 1018.1
20160830074621 76 51 0.0 0.0 0.00 0.00 0.00 94 1018.4
20160830073114 76 51 0.0 0.0 0.00 0.00 0.00 93 1018.5
20160830071604 76 51 0.0 0.0 0.00 0.00 0.00 92 1018.5
20160830070100 76 51 0.0 0.0 0.00 0.00 0.00 92 1018.8
20160830064549 76 51 0.0 0.0 0.00 0.00 0.00 92 1018.8
20160830063030 77 51 0.0 0.0 0.00 0.00 0.00 91 1018.8
20160830061521 77 51 0.0 0.0 0.00 0.00 0.00 91 1018.8